Time,TemperatureF,DewpointF,PressureIn,WindDirection,WindDirectionDegrees,WindSpeedMPH,WindSpeedGustMPH,Humidity,HourlyPrecipIn,Conditions,Clouds,dailyrainin,SoftwareType,DateUTC
2013-08-12 00:00:00,70.4,63.2,30.09,East,86,3.0,3.0,78,0.00,,,0.00,Wunderground v.1.15,2013-08-12 04:00:00,
2013-08-12 00:05:00,70.3,63.1,30.09,East,86,3.0,3.0,78,0.00,,,0.00,Wunderground v.1.15,2013-08-12 04:05:00,
2013-08-12 00:10:00,70.3,63.1,30.09,East,86,3.0,4.0,78,0.00,,,0.00,Wunderground v.1.15,2013-08-12 04:10:00,
2013-08-12 00:15:00,70.3,63.1,30.09,East,86,3.0,4.0,78,0.00,,,0.00,Wunderground v.1.15,2013-08-12 04:15:00,
2013-08-12 00:20:00,70.3,63.1,30.09,East,86,3.0,3.0,78,0.00,,,0.00,Wunderground v.1.15,2013-08-12 04:20:00,
2013-08-12 00:25:00,70.1,64.0,30.10,East,86,3.0,3.0,81,0.00,,,0.00,Wunderground v.1.15,2013-08-12 04:25:00,
2013-08-12 00:30:00,69.8,63.7,30.09,East,86,3.0,4.0,81,0.00,,,0.00,Wunderground v.1.15,2013-08-12 04:30:00,
2013-08-12 00:35:00,69.7,63.6,30.09,East,86,4.0,4.0,81,0.00,,,0.00,Wunderground v.1.15,2013-08-12 04:35:00,
2013-08-12 00:40:00,69.7,63.6,30.09,East,86,4.0,4.0,81,0.00,,,0.00,Wunderground v.1.15,2013-08-12 04:40:00,
2013-08-12 00:45:00,69.6,63.9,30.09,East,86,4.0,5.0,82,0.00,,,0.00,Wunderground v.1.15,2013-08-12 04:45:00,
2013-08-12 00:50:00,69.3,63.9,30.09,East,86,4.0,4.0,83,0.00,,,0.00,Wunderground v.1.15,2013-08-12 04:50:00,
2013-08-12 01:00:00,69.2,64.2,30.09,West,277,4.0,4.0,84,0.00,,,0.00,Wunderground v.1.15,2013-08-12 05:00:00,
2013-08-12 01:05:00,69.3,63.9,30.09,WNW,297,4.0,4.0,83,0.00,,,0.00,Wunderground v.1.15,2013-08-12 05:05:00,
2013-08-12 01:10:00,69.2,64.2,30.09,WNW,283,4.0,5.0,84,0.00,,,0.00,Wunderground v.1.15,2013-08-12 05:10:00,
2013-08-12 01:15:00,69.0,64.0,30.09,North,349,4.0,5.0,84,0.00,,,0.00,Wunderground v.1.15,2013-08-12 05:15:00,
2013-08-12 01:20:00,68.8,64.1,30.09,NW,315,3.0,3.0,85,0.00,,,0.00,Wunderground v.1.15,2013-08-12 05:20:00,
2013-08-12 01:25:00,68.7,64.0,30.09,WNW,283,2.0,4.0,85,0.00,,,0.00,Wunderground v.1.15,2013-08-12 05:25:00,
2013-08-12 01:30:00,68.6,63.9,30.09,West,276,3.0,5.0,85,0.00,,,0.00,Wunderground v.1.15,2013-08-12 05:30:00,
2013-08-12 01:35:00,68.6,63.9,30.08,West,280,4.0,5.0,85,0.00,,,0.00,Wunderground v.1.15,2013-08-12 05:35:00,
2013-08-12 01:45:00,68.6,63.9,30.09,West,267,3.0,4.0,85,0.00,,,0.00,Wunderground v.1.15,2013-08-12 05:45:00,
2013-08-12 01:50:00,68.4,64.0,30.08,West,272,3.0,5.0,86,0.00,,,0.00,Wunderground v.1.15,2013-08-12 05:50:00,
2013-08-12 01:55:00,68.2,63.9,30.08,West,279,4.0,5.0,86,0.00,,,0.00,Wunderground v.1.15,2013-08-12 05:55:00,
2013-08-12 02:05:00,68.0,63.7,30.08,NW,308,3.0,4.0,86,0.00,,,0.00,Wunderground v.1.15,2013-08-12 06:05:00,
2013-08-12 02:10:00,68.0,63.7,30.08,WNW,290,3.0,4.0,86,0.00,,,0.00,Wunderground v.1.15,2013-08-12 06:10:00,
2013-08-12 02:15:00,68.0,63.7,30.08,WNW,285,2.0,4.0,86,0.00,,,0.00,Wunderground v.1.15,2013-08-12 06:15:00,
2013-08-12 02:20:00,67.9,63.6,30.08,West,274,2.0,4.0,86,0.00,,,0.00,Wunderground v.1.15,2013-08-12 06:20:00,
2013-08-12 02:25:00,67.9,63.6,30.08,NW,315,2.0,4.0,86,0.00,,,0.00,Wunderground v.1.15,2013-08-12 06:25:00,
2013-08-12 02:30:00,67.8,63.5,30.08,WNW,297,2.0,4.0,86,0.00,,,0.00,Wunderground v.1.15,2013-08-12 06:30:00,
2013-08-12 02:35:00,67.8,63.5,30.08,NW,304,3.0,4.0,86,0.00,,,0.00,Wunderground v.1.15,2013-08-12 06:35:00,
2013-08-12 02:40:00,67.7,63.4,30.07,West,267,2.0,4.0,86,0.00,,,0.00,Wunderground v.1.15,2013-08-12 06:40:00,
2013-08-12 02:45:00,67.8,63.1,30.07,WNW,283,3.0,4.0,85,0.00,,,0.00,Wunderground v.1.15,2013-08-12 06:45:00,
2013-08-12 02:55:00,67.5,63.2,30.07,WNW,287,3.0,4.0,86,0.00,,,0.00,Wunderground v.1.15,2013-08-12 06:55:00,
2013-08-12 03:00:00,67.5,63.2,30.07,WNW,285,3.0,3.0,86,0.00,,,0.00,Wunderground v.1.15,2013-08-12 07:00:00,
2013-08-12 03:10:00,67.4,63.1,30.07,NW,315,3.0,3.0,86,0.00,,,0.00,Wunderground v.1.15,2013-08-12 07:10:00,
2013-08-12 03:15:00,67.2,62.9,30.07,WNW,293,3.0,4.0,86,0.00,,,0.00,Wunderground v.1.15,2013-08-12 07:15:00,
2013-08-12 03:20:00,66.9,62.9,30.07,NW,304,3.0,3.0,87,0.00,,,0.00,Wunderground v.1.15,2013-08-12 07:20:00,
2013-08-12 03:30:00,66.7,62.7,30.06,West,274,3.0,4.0,87,0.00,,,0.00,Wunderground v.1.15,2013-08-12 07:30:00,
2013-08-12 03:35:00,66.7,62.7,30.06,WNW,287,3.0,5.0,87,0.00,,,0.00,Wunderground v.1.15,2013-08-12 07:35:00,
2013-08-12 03:40:00,66.6,62.6,30.06,WNW,287,3.0,3.0,87,0.00,,,0.00,Wunderground v.1.15,2013-08-12 07:40:00,
2013-08-12 03:45:00,66.4,62.7,30.06,WNW,300,3.0,5.0,88,0.00,,,0.00,Wunderground v.1.15,2013-08-12 07:45:00,
2013-08-12 03:50:00,66.3,62.6,30.06,West,276,3.0,5.0,88,0.00,,,0.00,Wunderground v.1.15,2013-08-12 07:50:00,
2013-08-12 04:00:00,66.1,62.4,30.06,WNW,290,3.0,5.0,88,0.00,,,0.00,Wunderground v.1.15,2013-08-12 08:00:00,
2013-08-12 04:10:00,66.0,62.3,30.06,WNW,288,3.0,5.0,88,0.00,,,0.00,Wunderground v.1.15,2013-08-12 08:10:00,
2013-08-12 04:15:00,65.9,62.6,30.06,NW,322,3.0,5.0,89,0.00,,,0.00,Wunderground v.1.15,2013-08-12 08:15:00,
2013-08-12 04:20:00,65.9,62.2,30.06,West,281,3.0,5.0,88,0.00,,,0.00,Wunderground v.1.15,2013-08-12 08:20:00,
2013-08-12 04:25:00,66.0,62.3,30.06,WNW,283,4.0,5.0,88,0.00,,,0.00,Wunderground v.1.15,2013-08-12 08:25:00,
2013-08-12 04:35:00,66.0,62.3,30.06,WNW,284,4.0,6.0,88,0.00,,,0.00,Wunderground v.1.15,2013-08-12 08:35:00,
2013-08-12 04:40:00,65.9,62.2,30.06,WNW,293,4.0,4.0,88,0.00,,,0.00,Wunderground v.1.15,2013-08-12 08:40:00,
2013-08-12 04:45:00,65.8,62.5,30.05,WNW,299,3.0,5.0,89,0.00,,,0.00,Wunderground v.1.15,2013-08-12 08:45:00,
2013-08-12 04:50:00,65.7,62.4,30.05,WNW,302,3.0,3.0,89,0.00,,,0.00,Wunderground v.1.15,2013-08-12 08:50:00,
2013-08-12 05:00:00,65.5,62.2,30.06,NW,314,3.0,5.0,89,0.00,,,0.00,Wunderground v.1.15,2013-08-12 09:00:00,
2013-08-12 05:10:00,65.4,62.4,30.06,NW,306,2.0,5.0,90,0.00,,,0.00,Wunderground v.1.15,2013-08-12 09:10:00,
2013-08-12 05:15:00,65.5,62.2,30.06,NNW,344,3.0,5.0,89,0.00,,,0.00,Wunderground v.1.15,2013-08-12 09:15:00,
2013-08-12 05:20:00,65.5,62.2,30.06,WNW,300,3.0,5.0,89,0.00,,,0.00,Wunderground v.1.15,2013-08-12 09:20:00,
2013-08-12 05:25:00,65.5,62.2,30.06,NNE,29,3.0,5.0,89,0.00,,,0.00,Wunderground v.1.15,2013-08-12 09:25:00,
2013-08-12 05:30:00,65.4,62.4,30.06,NW,321,3.0,5.0,90,0.00,,,0.00,Wunderground v.1.15,2013-08-12 09:30:00,
2013-08-12 05:35:00,65.5,62.5,30.06,NNW,338,3.0,5.0,90,0.00,,,0.00,Wunderground v.1.15,2013-08-12 09:35:00,
2013-08-12 05:45:00,65.5,62.5,30.06,NNW,328,5.0,5.0,90,0.00,,,0.00,Wunderground v.1.15,2013-08-12 09:45:00,
2013-08-12 05:50:00,65.3,62.3,30.06,WNW,300,4.0,4.0,90,0.00,,,0.00,Wunderground v.1.15,2013-08-12 09:50:00,
2013-08-12 05:55:00,65.2,62.5,30.06,NNW,334,3.0,5.0,91,0.00,,,0.00,Wunderground v.1.15,2013-08-12 09:55:00,
2013-08-12 06:05:00,65.2,62.5,30.06,WNW,302,3.0,5.0,91,0.00,,,0.00,Wunderground v.1.15,2013-08-12 10:05:00,
2013-08-12 06:10:00,65.1,62.4,30.06,NW,315,3.0,5.0,91,0.00,,,0.00,Wunderground v.1.15,2013-08-12 10:10:00,
2013-08-12 06:20:00,64.9,62.2,30.06,WNW,300,3.0,5.0,91,0.00,,,0.00,Wunderground v.1.15,2013-08-12 10:20:00,
2013-08-12 06:25:00,64.8,62.4,30.06,WNW,300,3.0,5.0,92,0.00,,,0.00,Wunderground v.1.15,2013-08-12 10:25:00,
2013-08-12 06:30:00,64.6,62.2,30.06,WNW,290,3.0,5.0,92,0.00,,,0.00,Wunderground v.1.15,2013-08-12 10:30:00,
2013-08-12 06:35:00,64.6,62.2,30.06,WNW,293,3.0,5.0,92,0.00,,,0.00,Wunderground v.1.15,2013-08-12 10:35:00,
2013-08-12 06:40:00,64.7,62.3,30.06,West,271,4.0,5.0,92,0.00,,,0.00,Wunderground v.1.15,2013-08-12 10:40:00,
2013-08-12 06:50:00,64.5,62.1,30.06,NW,308,4.0,4.0,92,0.00,,,0.00,Wunderground v.1.15,2013-08-12 10:50:00,
2013-08-12 06:55:00,64.5,62.1,30.06,West,277,4.0,5.0,92,0.00,,,0.00,Wunderground v.1.15,2013-08-12 10:55:00,
2013-08-12 07:05:00,64.4,62.0,30.06,West,267,5.0,5.0,92,0.00,,,0.00,Wunderground v.1.15,2013-08-12 11:05:00,
2013-08-12 07:10:00,64.5,62.1,30.06,West,274,5.0,5.0,92,0.00,,,0.00,Wunderground v.1.15,2013-08-12 11:10:00,
2013-08-12 07:15:00,64.4,62.0,30.06,West,276,5.0,5.0,92,0.00,,,0.00,Wunderground v.1.15,2013-08-12 11:15:00,
2013-08-12 07:25:00,64.4,62.3,30.06,West,276,4.0,5.0,93,0.00,,,0.00,Wunderground v.1.15,2013-08-12 11:25:00,
2013-08-12 07:30:00,64.5,62.1,30.06,West,276,4.0,4.0,92,0.00,,,0.00,Wunderground v.1.15,2013-08-12 11:30:00,
2013-08-12 07:35:00,64.6,62.2,30.05,WNW,293,4.0,5.0,92,0.00,,,0.00,Wunderground v.1.15,2013-08-12 11:35:00,
2013-08-12 07:40:00,64.7,62.3,30.05,NNW,328,3.0,3.0,92,0.00,,,0.00,Wunderground v.1.15,2013-08-12 11:40:00,
2013-08-12 07:45:00,64.9,62.5,30.05,NE,56,2.0,5.0,92,0.00,,,0.00,Wunderground v.1.15,2013-08-12 11:45:00,
2013-08-12 07:55:00,65.0,62.6,30.05,NNW,340,2.0,5.0,92,0.00,,,0.00,Wunderground v.1.15,2013-08-12 11:55:00,
2013-08-12 08:05:00,65.4,62.7,30.05,West,274,3.0,5.0,91,0.00,,,0.00,Wunderground v.1.15,2013-08-12 12:05:00,
2013-08-12 08:10:00,65.7,63.0,30.04,NW,316,3.0,3.0,91,0.00,,,0.00,Wunderground v.1.15,2013-08-12 12:10:00,
2013-08-12 08:15:00,66.0,63.3,30.04,NW,308,3.0,5.0,91,0.00,,,0.00,Wunderground v.1.15,2013-08-12 12:15:00,
2013-08-12 08:20:00,66.5,63.8,30.04,West,273,3.0,5.0,91,0.00,,,0.00,Wunderground v.1.15,2013-08-12 12:20:00,
2013-08-12 08:25:00,66.7,63.7,30.03,NW,316,4.0,6.0,90,0.00,,,0.00,Wunderground v.1.15,2013-08-12 12:25:00,
2013-08-12 08:35:00,67.2,63.8,30.03,WNW,291,5.0,5.0,89,0.00,,,0.00,Wunderground v.1.15,2013-08-12 12:35:00,
2013-08-12 08:40:00,67.8,64.1,30.03,WNW,293,5.0,5.0,88,0.00,,,0.00,Wunderground v.1.15,2013-08-12 12:40:00,
2013-08-12 08:45:00,68.0,64.3,30.03,West,281,5.0,5.0,88,0.00,,,0.00,Wunderground v.1.15,2013-08-12 12:45:00,
2013-08-12 08:50:00,68.3,64.6,30.03,WNW,287,5.0,5.0,88,0.00,,,0.00,Wunderground v.1.15,2013-08-12 12:50:00,
2013-08-12 09:00:00,68.6,64.9,30.03,NW,325,5.0,5.0,88,0.00,,,0.00,Wunderground v.1.15,2013-08-12 13:00:00,
2013-08-12 09:10:00,69.7,65.3,30.03,WSW,255,3.0,5.0,86,0.00,,,0.00,Wunderground v.1.15,2013-08-12 13:10:00,
2013-08-12 09:15:00,70.2,65.1,30.03,NW,313,3.0,5.0,84,0.00,,,0.00,Wunderground v.1.15,2013-08-12 13:15:00,
2013-08-12 09:20:00,70.7,65.6,30.03,West,278,4.0,4.0,84,0.00,,,0.00,Wunderground v.1.15,2013-08-12 13:20:00,
2013-08-12 09:25:00,71.1,65.3,30.03,NW,308,4.0,5.0,82,0.00,,,0.00,Wunderground v.1.15,2013-08-12 13:25:00,
2013-08-12 09:30:00,71.2,65.1,30.03,West,271,5.0,5.0,81,0.00,,,0.00,Wunderground v.1.15,2013-08-12 13:30:00,
2013-08-12 09:40:00,71.8,65.7,30.02,West,277,6.0,6.0,81,0.00,,,0.00,Wunderground v.1.15,2013-08-12 13:40:00,
2013-08-12 09:45:00,72.0,65.8,30.02,WNW,283,5.0,6.0,81,0.00,,,0.00,Wunderground v.1.15,2013-08-12 13:45:00,
2013-08-12 09:50:00,72.2,65.7,30.02,West,280,6.0,6.0,80,0.00,,,0.00,Wunderground v.1.15,2013-08-12 13:50:00,
2013-08-12 09:55:00,72.7,66.5,30.02,WNW,301,5.0,6.0,81,0.00,,,0.00,Wunderground v.1.15,2013-08-12 13:55:00,
2013-08-12 10:05:00,73.3,66.4,30.02,WNW,295,5.0,5.0,79,0.00,,,0.00,Wunderground v.1.15,2013-08-12 14:05:00,
2013-08-12 10:15:00,74.1,66.8,30.02,NW,304,5.0,5.0,78,0.00,,,0.00,Wunderground v.1.15,2013-08-12 14:15:00,
2013-08-12 10:20:00,74.6,66.5,30.02,East,96,5.0,5.0,76,0.00,,,0.00,Wunderground v.1.15,2013-08-12 14:20:00,
2013-08-12 10:25:00,74.8,66.7,30.02,NW,315,5.0,9.0,76,0.00,,,0.00,Wunderground v.1.15,2013-08-12 14:25:00,
2013-08-12 10:30:00,74.9,66.4,30.02,NW,313,6.0,6.0,75,0.00,,,0.00,Wunderground v.1.15,2013-08-12 14:30:00,
2013-08-12 10:35:00,75.1,66.6,30.02,NNW,334,6.0,10.0,75,0.00,,,0.00,Wunderground v.1.15,2013-08-12 14:35:00,
2013-08-12 10:40:00,75.7,67.2,30.02,WNW,289,5.0,5.0,75,0.00,,,0.00,Wunderground v.1.15,2013-08-12 14:40:00,
2013-08-12 10:45:00,75.6,66.7,30.02,West,265,5.0,7.0,74,0.00,,,0.00,Wunderground v.1.15,2013-08-12 14:45:00,
2013-08-12 10:50:00,75.4,66.5,30.02,WNW,295,6.0,6.0,74,0.00,,,0.00,Wunderground v.1.15,2013-08-12 14:50:00,
2013-08-12 10:55:00,75.5,66.6,30.02,WNW,285,6.0,10.0,74,0.00,,,0.00,Wunderground v.1.15,2013-08-12 14:55:00,
2013-08-12 11:05:00,75.9,66.6,30.02,NW,310,7.0,10.0,73,0.00,,,0.00,Wunderground v.1.15,2013-08-12 15:05:00,
2013-08-12 11:10:00,76.0,67.1,30.01,West,267,8.0,8.0,74,0.00,,,0.00,Wunderground v.1.15,2013-08-12 15:10:00,
2013-08-12 11:15:00,76.4,67.5,30.02,NW,316,6.0,10.0,74,0.00,,,0.00,Wunderground v.1.15,2013-08-12 15:15:00,
2013-08-12 11:25:00,77.1,67.4,30.02,NNW,333,6.0,10.0,72,0.00,,,0.00,Wunderground v.1.15,2013-08-12 15:25:00,
2013-08-12 11:30:00,77.4,66.8,30.01,West,277,7.0,7.0,70,0.00,,,0.00,Wunderground v.1.15,2013-08-12 15:30:00,
2013-08-12 11:35:00,77.2,67.1,30.01,WNW,295,7.0,10.0,71,0.00,,,0.00,Wunderground v.1.15,2013-08-12 15:35:00,
2013-08-12 11:40:00,77.6,66.2,30.01,NW,316,6.0,11.0,68,0.00,,,0.00,Wunderground v.1.15,2013-08-12 15:40:00,
2013-08-12 11:45:00,77.5,66.5,30.01,WNW,299,8.0,11.0,69,0.00,,,0.00,Wunderground v.1.15,2013-08-12 15:45:00,
2013-08-12 11:50:00,77.4,66.8,30.01,NW,326,9.0,9.0,70,0.00,,,0.00,Wunderground v.1.15,2013-08-12 15:50:00,
2013-08-12 11:55:00,77.7,67.1,30.00,NW,317,7.0,10.0,70,0.00,,,0.00,Wunderground v.1.15,2013-08-12 15:55:00,
2013-08-12 12:00:00,77.7,67.1,30.00,West,272,7.0,7.0,70,0.00,,,0.00,Wunderground v.1.15,2013-08-12 16:00:00,
2013-08-12 12:10:00,77.9,67.3,30.00,NW,325,8.0,9.0,70,0.00,,,0.00,Wunderground v.1.15,2013-08-12 16:10:00,
2013-08-12 12:15:00,78.2,66.8,30.00,NNW,328,8.0,9.0,68,0.00,,,0.00,Wunderground v.1.15,2013-08-12 16:15:00,
2013-08-12 12:20:00,78.5,67.9,30.00,NW,308,8.0,9.0,70,0.00,,,0.00,Wunderground v.1.15,2013-08-12 16:20:00,
2013-08-12 12:25:00,78.3,67.3,30.00,NW,324,7.0,9.0,69,0.00,,,0.00,Wunderground v.1.15,2013-08-12 16:25:00,
2013-08-12 12:30:00,78.5,68.3,30.00,NNW,345,7.0,8.0,71,0.00,,,0.00,Wunderground v.1.15,2013-08-12 16:30:00,
2013-08-12 12:35:00,78.6,67.6,30.00,NNE,30,8.0,16.0,69,0.00,,,0.00,Wunderground v.1.15,2013-08-12 16:35:00,
2013-08-12 12:40:00,78.9,67.4,30.00,NW,311,8.0,16.0,68,0.00,,,0.00,Wunderground v.1.15,2013-08-12 16:40:00,
2013-08-12 12:45:00,79.6,68.5,30.00,NNW,332,7.0,16.0,69,0.00,,,0.00,Wunderground v.1.15,2013-08-12 16:45:00,
2013-08-12 12:55:00,80.2,67.4,30.00,NW,316,8.0,16.0,65,0.00,,,0.00,Wunderground v.1.15,2013-08-12 16:55:00,
2013-08-12 13:05:00,79.7,67.8,30.00,NW,313,9.0,16.0,67,0.00,,,0.00,Wunderground v.1.15,2013-08-12 17:05:00,
2013-08-12 13:10:00,79.6,69.0,30.00,NW,319,8.0,16.0,70,0.00,,,0.00,Wunderground v.1.15,2013-08-12 17:10:00,
2013-08-12 13:15:00,79.8,68.3,29.99,East,86,8.0,16.0,68,0.00,,,0.00,Wunderground v.1.15,2013-08-12 17:15:00,
2013-08-12 13:20:00,80.1,67.7,30.00,NW,304,9.0,16.0,66,0.00,,,0.00,Wunderground v.1.15,2013-08-12 17:20:00,
2013-08-12 13:25:00,80.1,67.3,29.99,West,269,8.0,16.0,65,0.00,,,0.00,Wunderground v.1.15,2013-08-12 17:25:00,
2013-08-12 13:30:00,80.2,67.4,29.99,West,269,7.0,16.0,65,0.00,,,0.00,Wunderground v.1.15,2013-08-12 17:30:00,
2013-08-12 13:40:00,80.3,67.9,29.99,NW,324,8.0,8.0,66,0.00,,,0.00,Wunderground v.1.15,2013-08-12 17:40:00,
2013-08-12 13:45:00,80.4,68.0,29.99,West,276,7.0,16.0,66,0.00,,,0.00,Wunderground v.1.15,2013-08-12 17:45:00,
2013-08-12 13:55:00,80.7,67.8,29.98,NNW,329,9.0,9.0,65,0.00,,,0.00,Wunderground v.1.15,2013-08-12 17:55:00,
2013-08-12 14:00:00,80.3,66.6,29.98,NW,318,9.0,9.0,63,0.00,,,0.00,Wunderground v.1.15,2013-08-12 18:00:00,
2013-08-12 14:10:00,80.8,68.4,29.98,West,278,8.0,8.0,66,0.00,,,0.00,Wunderground v.1.15,2013-08-12 18:10:00,
2013-08-12 14:15:00,81.1,67.3,29.97,West,276,8.0,8.0,63,0.00,,,0.00,Wunderground v.1.15,2013-08-12 18:15:00,
2013-08-12 14:25:00,80.9,66.7,29.97,West,278,9.0,12.0,62,0.00,,,0.00,Wunderground v.1.15,2013-08-12 18:25:00,
2013-08-12 14:35:00,80.9,66.7,29.96,ENE,60,10.0,15.0,62,0.00,,,0.00,Wunderground v.1.15,2013-08-12 18:35:00,
2013-08-12 14:40:00,81.1,67.3,29.96,SE,142,8.0,8.0,63,0.00,,,0.00,Wunderground v.1.15,2013-08-12 18:40:00,
2013-08-12 14:50:00,80.6,66.4,29.96,WNW,300,9.0,9.0,62,0.00,,,0.00,Wunderground v.1.15,2013-08-12 18:50:00,
2013-08-12 14:55:00,80.8,66.6,29.96,WNW,299,8.0,10.0,62,0.00,,,0.00,Wunderground v.1.15,2013-08-12 18:55:00,
2013-08-12 15:00:00,80.7,67.8,29.96,North,6,6.0,6.0,65,0.00,,,0.00,Wunderground v.1.15,2013-08-12 19:00:00,
2013-08-12 15:05:00,80.9,67.6,29.95,WNW,300,7.0,9.0,64,0.00,,,0.00,Wunderground v.1.15,2013-08-12 19:05:00,
2013-08-12 15:10:00,80.9,68.5,29.96,NW,322,7.0,15.0,66,0.00,,,0.00,Wunderground v.1.15,2013-08-12 19:10:00,
2013-08-12 15:15:00,80.9,68.0,29.96,NW,326,7.0,15.0,65,0.00,,,0.00,Wunderground v.1.15,2013-08-12 19:15:00,
2013-08-12 15:25:00,81.6,67.3,29.95,NW,316,7.0,9.0,62,0.00,,,0.00,Wunderground v.1.15,2013-08-12 19:25:00,
2013-08-12 15:35:00,81.0,67.7,29.95,NW,309,10.0,15.0,64,0.00,,,0.00,Wunderground v.1.15,2013-08-12 19:35:00,
2013-08-12 15:40:00,81.0,68.1,29.94,West,273,9.0,9.0,65,0.00,,,0.00,Wunderground v.1.15,2013-08-12 19:40:00,
2013-08-12 15:45:00,80.9,67.6,29.94,NW,311,8.0,13.0,64,0.00,,,0.00,Wunderground v.1.15,2013-08-12 19:45:00,
2013-08-12 15:50:00,80.9,67.1,29.94,ENE,59,9.0,15.0,63,0.00,,,0.00,Wunderground v.1.15,2013-08-12 19:50:00,
2013-08-12 16:00:00,81.1,67.3,29.93,NNW,345,9.0,9.0,63,0.00,,,0.00,Wunderground v.1.15,2013-08-12 20:00:00,
2013-08-12 16:10:00,80.6,66.8,29.93,NNW,342,9.0,13.0,63,0.00,,,0.00,Wunderground v.1.15,2013-08-12 20:10:00,
2013-08-12 16:15:00,80.4,66.6,29.93,WNW,287,9.0,13.0,63,0.00,,,0.00,Wunderground v.1.15,2013-08-12 20:15:00,
2013-08-12 16:25:00,80.2,68.2,29.93,WNW,300,7.0,9.0,67,0.00,,,0.00,Wunderground v.1.15,2013-08-12 20:25:00,
2013-08-12 16:35:00,80.2,69.1,29.93,WNW,302,7.0,7.0,69,0.00,,,0.00,Wunderground v.1.15,2013-08-12 20:35:00,
2013-08-12 16:40:00,80.2,69.1,29.93,WNW,295,7.0,14.0,69,0.00,,,0.00,Wunderground v.1.15,2013-08-12 20:40:00,
2013-08-12 16:45:00,79.9,68.8,29.93,WNW,293,6.0,14.0,69,0.00,,,0.00,Wunderground v.1.15,2013-08-12 20:45:00,
2013-08-12 16:50:00,79.9,68.8,29.92,NW,324,7.0,14.0,69,0.00,,,0.00,Wunderground v.1.15,2013-08-12 20:50:00,
2013-08-12 16:55:00,80.0,68.9,29.92,NW,325,8.0,14.0,69,0.00,,,0.00,Wunderground v.1.15,2013-08-12 20:55:00,
2013-08-12 17:05:00,79.9,68.8,29.92,NW,321,7.0,14.0,69,0.00,,,0.00,Wunderground v.1.15,2013-08-12 21:05:00,
2013-08-12 17:10:00,79.7,69.0,29.92,NNW,328,7.0,7.0,70,0.00,,,0.00,Wunderground v.1.15,2013-08-12 21:10:00,
2013-08-12 17:15:00,79.8,69.6,29.92,NNW,333,7.0,14.0,71,0.00,,,0.00,Wunderground v.1.15,2013-08-12 21:15:00,
2013-08-12 17:20:00,79.8,69.6,29.91,NNW,338,6.0,14.0,71,0.00,,,0.00,Wunderground v.1.15,2013-08-12 21:20:00,
2013-08-12 17:30:00,79.8,69.6,29.91,WNW,298,7.0,7.0,71,0.00,,,0.00,Wunderground v.1.15,2013-08-12 21:30:00,
2013-08-12 17:35:00,79.9,69.7,29.91,ENE,73,6.0,14.0,71,0.00,,,0.00,Wunderground v.1.15,2013-08-12 21:35:00,
2013-08-12 17:40:00,80.0,70.2,29.91,WNW,293,5.0,5.0,72,0.00,,,0.00,Wunderground v.1.15,2013-08-12 21:40:00,
2013-08-12 17:45:00,79.8,70.4,29.91,WNW,290,5.0,14.0,73,0.00,,,0.00,Wunderground v.1.15,2013-08-12 21:45:00,
2013-08-12 17:50:00,79.6,70.2,29.91,WNW,298,4.0,14.0,73,0.00,,,0.00,Wunderground v.1.15,2013-08-12 21:50:00,
2013-08-12 18:00:00,79.2,70.2,29.91,NW,304,6.0,6.0,74,0.00,,,0.00,Wunderground v.1.15,2013-08-12 22:00:00,
2013-08-12 18:10:00,79.3,70.3,29.90,WNW,291,4.0,4.0,74,0.00,,,0.00,Wunderground v.1.15,2013-08-12 22:10:00,
2013-08-12 18:20:00,79.0,70.4,29.90,WNW,282,5.0,5.0,75,0.00,,,0.00,Wunderground v.1.15,2013-08-12 22:20:00,
2013-08-12 18:25:00,78.9,70.3,29.90,WNW,284,5.0,5.0,75,0.00,,,0.00,Wunderground v.1.15,2013-08-12 22:25:00,
2013-08-12 18:30:00,78.8,70.2,29.90,NW,308,6.0,6.0,75,0.00,,,0.00,Wunderground v.1.15,2013-08-12 22:30:00,
2013-08-12 18:35:00,78.7,70.5,29.89,East,86,5.0,12.0,76,0.00,,,0.00,Wunderground v.1.15,2013-08-12 22:35:00,
2013-08-12 18:40:00,78.6,70.8,29.89,WNW,291,4.0,4.0,77,0.00,,,0.00,Wunderground v.1.15,2013-08-12 22:40:00,
2013-08-12 18:50:00,78.3,70.9,29.89,WNW,290,4.0,4.0,78,0.00,,,0.00,Wunderground v.1.15,2013-08-12 22:50:00,
2013-08-12 18:55:00,78.2,70.8,29.88,NW,318,4.0,12.0,78,0.00,,,0.00,Wunderground v.1.15,2013-08-12 22:55:00,
2013-08-12 19:00:00,78.1,70.7,29.88,NW,317,4.0,12.0,78,0.00,,,0.00,Wunderground v.1.15,2013-08-12 23:00:00,
2013-08-12 19:05:00,78.0,71.3,29.88,WNW,302,3.0,12.0,80,0.00,,,0.00,Wunderground v.1.15,2013-08-12 23:05:00,
2013-08-12 19:15:00,77.8,71.5,29.88,North,1,3.0,12.0,81,0.00,,,0.00,Wunderground v.1.15,2013-08-12 23:15:00,
2013-08-12 19:25:00,77.9,71.2,29.88,WNW,299,4.0,12.0,80,0.00,,,0.00,Wunderground v.1.15,2013-08-12 23:25:00,
2013-08-12 19:30:00,78.0,71.7,29.88,WNW,298,3.0,12.0,81,0.00,,,0.00,Wunderground v.1.15,2013-08-12 23:30:00,
2013-08-12 19:35:00,78.0,71.0,29.88,NW,310,4.0,12.0,79,0.00,,,0.00,Wunderground v.1.15,2013-08-12 23:35:00,
2013-08-12 19:40:00,77.7,71.0,29.88,West,270,5.0,5.0,80,0.00,,,0.00,Wunderground v.1.15,2013-08-12 23:40:00,
2013-08-12 19:45:00,77.5,70.5,29.88,WNW,289,4.0,12.0,79,0.00,,,0.00,Wunderground v.1.15,2013-08-12 23:45:00,
2013-08-12 19:50:00,77.4,70.0,29.88,WNW,287,4.0,12.0,78,0.00,,,0.00,Wunderground v.1.15,2013-08-12 23:50:00,
2013-08-12 20:00:00,77.0,69.2,29.88,WNW,287,4.0,5.0,77,0.00,,,0.00,Wunderground v.1.15,2013-08-13 00:00:00,
2013-08-12 20:10:00,76.8,68.7,29.88,West,280,6.0,6.0,76,0.00,,,0.00,Wunderground v.1.15,2013-08-13 00:10:00,
2013-08-12 20:20:00,76.3,68.6,29.87,NW,307,4.0,4.0,77,0.00,,,0.00,Wunderground v.1.15,2013-08-13 00:20:00,
2013-08-12 20:25:00,76.0,68.6,29.87,NW,304,3.0,4.0,78,0.00,,,0.00,Wunderground v.1.15,2013-08-13 00:25:00,
2013-08-12 20:35:00,76.0,68.3,29.87,WNW,300,5.0,7.0,77,0.00,,,0.00,Wunderground v.1.15,2013-08-13 00:35:00,
2013-08-12 20:40:00,75.8,68.4,29.87,NW,308,5.0,5.0,78,0.00,,,0.00,Wunderground v.1.15,2013-08-13 00:40:00,
2013-08-12 20:45:00,75.6,68.3,29.87,NW,308,5.0,7.0,78,0.00,,,0.00,Wunderground v.1.15,2013-08-13 00:45:00,
2013-08-12 20:50:00,75.6,68.3,29.87,NE,40,5.0,5.0,78,0.00,,,0.00,Wunderground v.1.15,2013-08-13 00:50:00,
2013-08-12 20:55:00,75.6,68.6,29.87,NNW,330,5.0,7.0,79,0.00,,,0.00,Wunderground v.1.15,2013-08-13 00:55:00,
2013-08-12 21:05:00,75.5,68.5,29.88,NE,47,5.0,7.0,79,0.00,,,0.00,Wunderground v.1.15,2013-08-13 01:05:00,
2013-08-12 21:10:00,75.1,68.5,29.90,East,94,6.0,6.0,80,0.00,,,0.00,Wunderground v.1.15,2013-08-13 01:10:00,
2013-08-12 21:15:00,71.8,66.4,29.90,SSW,201,7.0,7.0,83,0.77,,,0.14,Wunderground v.1.15,2013-08-13 01:15:00,
2013-08-12 21:25:00,70.3,65.2,29.90,East,82,3.0,7.0,84,0.10,,,0.29,Wunderground v.1.15,2013-08-13 01:25:00,
2013-08-12 21:30:00,69.3,64.9,29.90,ENE,73,2.0,2.0,86,0.06,,,0.29,Wunderground v.1.15,2013-08-13 01:30:00,
2013-08-12 21:40:00,68.4,65.4,29.91,East,84,0.0,7.0,90,0.00,,,0.29,Wunderground v.1.15,2013-08-13 01:40:00,
2013-08-12 21:45:00,68.2,65.5,29.91,East,82,0.0,7.0,91,0.00,,,0.29,Wunderground v.1.15,2013-08-13 01:45:00,
2013-08-12 21:50:00,68.0,65.3,29.91,East,83,1.0,1.0,91,0.00,,,0.29,Wunderground v.1.15,2013-08-13 01:50:00,
2013-08-12 21:55:00,67.9,65.5,29.91,East,84,1.0,7.0,92,0.00,,,0.29,Wunderground v.1.15,2013-08-13 01:55:00,
2013-08-12 22:00:00,67.8,65.7,29.91,ENE,63,1.0,3.0,93,0.00,,,0.29,Wunderground v.1.15,2013-08-13 02:00:00,
2013-08-12 22:10:00,67.6,66.1,29.91,NE,38,2.0,2.0,95,0.00,,,0.29,Wunderground v.1.15,2013-08-13 02:10:00,
2013-08-12 22:15:00,67.8,66.3,29.91,NE,44,2.0,4.0,95,0.00,,,0.29,Wunderground v.1.15,2013-08-13 02:15:00,
2013-08-12 22:25:00,68.1,66.9,29.91,East,86,3.0,3.0,96,0.00,,,0.29,Wunderground v.1.15,2013-08-13 02:25:00,
2013-08-12 22:30:00,68.3,67.1,29.91,East,91,4.0,4.0,96,0.00,,,0.29,Wunderground v.1.15,2013-08-13 02:30:00,
2013-08-12 22:35:00,68.3,67.1,29.91,East,87,4.0,20.0,96,0.00,,,0.29,Wunderground v.1.15,2013-08-13 02:35:00,
2013-08-12 22:40:00,68.2,67.0,29.91,East,87,3.0,3.0,96,0.00,,,0.29,Wunderground v.1.15,2013-08-13 02:40:00,
2013-08-12 22:50:00,67.9,66.7,29.91,ENE,61,3.0,20.0,96,0.00,,,0.29,Wunderground v.1.15,2013-08-13 02:50:00,
2013-08-12 22:55:00,67.7,66.5,29.91,NE,46,2.0,20.0,96,0.00,,,0.29,Wunderground v.1.15,2013-08-13 02:55:00,
2013-08-12 23:00:00,67.5,66.3,29.91,NE,38,2.0,20.0,96,0.00,,,0.29,Wunderground v.1.15,2013-08-13 03:00:00,
2013-08-12 23:05:00,67.4,66.2,29.91,NE,49,2.0,20.0,96,0.00,,,0.29,Wunderground v.1.15,2013-08-13 03:05:00,
2013-08-12 23:10:00,67.0,65.8,29.91,ENE,73,1.0,20.0,96,0.00,,,0.29,Wunderground v.1.15,2013-08-13 03:10:00,
2013-08-12 23:20:00,66.6,65.4,29.91,ENE,74,0.0,20.0,96,0.00,,,0.29,Wunderground v.1.15,2013-08-13 03:20:00,
2013-08-12 23:30:00,66.5,65.6,29.91,ENE,63,1.0,1.0,97,0.00,,,0.29,Wunderground v.1.15,2013-08-13 03:30:00,
2013-08-12 23:35:00,66.3,65.1,29.91,East,86,1.0,20.0,96,0.00,,,0.29,Wunderground v.1.15,2013-08-13 03:35:00,
2013-08-12 23:40:00,66.1,64.9,29.91,East,86,1.0,20.0,96,0.00,,,0.29,Wunderground v.1.15,2013-08-13 03:40:00,
2013-08-12 23:45:00,65.9,64.7,29.91,ENE,78,1.0,20.0,96,0.00,,,0.29,Wunderground v.1.15,2013-08-13 03:45:00,
2013-08-12 23:55:00,65.7,64.5,29.92,NNE,26,2.0,20.0,96,0.00,,,0.29,Wunderground v.1.15,2013-08-13 03:55:00,